Helicity
184 172 132 99 71 81 112 128 121 120 147 161 174 178 202 224 127 89 49 19 35 57 54 19 19 19 36 48 49 35 30 45 55 71 75 75 91 103 110 102 81 68 63
160 108 81 49 81 108 126 131 131 134 138 175 224 219 127 69 68 78 85 77 82 81 89 85 72 69 76 73 82 76 82 83 90 79 84 97 91 90 77 70 72 74 83
88 71 99 75 86 105 124 117 113 139 160 136 115 95 93 92 82 80 82 90 97 104 110 109 98 98 94 90 89 90 89 86 85 85 74 85 85 85 73 64 66 71 74
88 115 109 104 129 124 115 82 69 87 98 109 100 75 87 82 76 74 87 100 97 99 98 94 96 92 83 77 77 78 77 80 81 86 81 77 88 85 83 72 65 62 60
127 125 122 123 116 93 80 90 107 118 95 84 77 78 72 69 103 121 89 106 92 87 82 74 75 92 101 78 79 71 73 75 80 89 96 93 96 94 89 88 83 85 88
117 111 118 130 129 131 101 85 103 90 84 73 77 73 69 80 189 140 117 88 82 70 67 64 66 62 49 48 58 59 77 93 92 108 120 111 81 115 127 103 87 87 67
120 119 150 167 152 137 102 93 85 75 69 69 74 84 84 75 173 112 97 75 70 59 56 59 53 54 50 43 57 67 61 62 88 82 97 108 100 103 105 107 113 106 91
124 135 175 188 145 113 89 73 62 67 67 72 85 85 75 75 136 100 75 59 63 54 48 39 36 30 37 81 63 63 58 58 65 85 74 71 76 75 83 76 72 72 83
102 150 192 158 113 89 64 64 66 72 74 85 90 85 76 85 127 101 82 76 65 52 40 33 43 30 21 40 45 42 45 43 53 62 55 41 35 37 37 77 83 86 82
135 101 117 115 97 64 62 65 72 76 85 109 102 88 99 84 105 98 85 76 54 43 35 24 8 3 15 23 32 43 34 7 19 61 61 47 41 30 25 42 49 58 65
109 102 86 106 82 63 70 73 80 85 96 133 108 100 76 109 71 65 64 69 59 36 12 7 7 47 78 52 36 -3 -30 -18 -29 -41 -32 -40 -34 -2 36 63 70 86 61
105 91 92 93 79 77 74 78 80 88 129 131 119 112 98 94 62 65 44 38 31 -2 -11 -13 17 33 -10 1 -18 -7 -1 -10 -18 -4 4 1 -6 -5 6 40 50 53 61
91 90 86 89 80 76 78 78 87 105 152 129 117 106 78 78 65 49 28 13 -0 -11 -19 -27 -49 -21 -14 -29 -35 4 11 -13 -8 -2 3 5 -1 -7 -1 19 28 31 28
89 86 85 83 97 72 86 89 98 138 148 119 116 97 85 69 65 45 -26 -16 1 -22 -14 -28 -22 -12 -13 -15 1 -0 3 5 7 9 4 7 14 26 40 42 32 25 36
98 87 84 91 87 79 83 100 99 127 157 128 113 99 93 77 57 -9 -10 -2 -12 -3 5 -13 -4 3 17 21 8 3 3 10 20 15 4 -1 -0 -0 9 11 21 23 26
84 72 92 88 91 90 81 71 173 164 154 129 117 113 91 71 -12 3 9 10 4 7 -11 2 12 19 27 26 8 -7 -8 2 20 37 24 1 -6 -13 -15 14 21 16 20
62 76 80 83 83 85 74 68 75 122 170 138 123 99 80 -30 -6 5 12 11 3 13 8 15 22 28 29 25 24 15 -6 -3 16 18 27 -10 -22 -14 -19 -15 8 26 33
48 73 66 73 78 77 69 66 75 92 93 96 138 114 80 -32 -10 5 13 -0 -11 -5 4 13 26 36 40 30 25 24 26 6 -14 -17 -1 3 -15 -22 -25 -38 -38 -33 -11
36 49 59 73 76 71 61 60 70 76 84 97 89 100 63 -42 -30 -11 1 -13 -11 -7 3 5 11 35 35 22 20 22 25 16 9 -1 -8 4 11 -3 -16 -31 -40 -36 -20
34 61 56 70 71 66 59 59 65 67 71 91 86 78 -22 -56 -36 -17 -14 -9 -7 -7 -2 1 7 22 22 21 23 21 16 15 16 13 5 -4 7 -0 -4 -4 -15 -20 -20
45 49 66 64 70 66 58 55 59 63 65 74 86 82 16 -77 -38 -22 -11 -3 4 6 5 4 8 16 14 12 10 11 12 9 4 8 12 8 -0 -4 -3 -6 -0 -2 1
44 59 61 72 68 63 57 52 54 59 64 64 74 82 23 -48 -57 -35 -15 -3 10 15 21 25 23 21 18 13 10 11 11 13 14 15 16 15 7 4 -4 -6 -1 5 8
51 58 63 74 67 59 52 53 53 56 64 68 63 61 41 -32 -48 -50 -27 -15 4 17 27 37 44 44 34 20 15 11 14 20 20 26 29 25 14 9 2 3 4 4 5
46 54 61 78 65 55 57 56 58 63 60 60 64 60 52 24 -35 -41 -34 -24 -13 8 19 28 34 45 40 32 23 19 18 23 22 20 21 19 15 15 11 12 10 12 8
39 51 63 66 60 56 59 62 61 64 64 60 61 61 56 41 14 -21 -23 -24 -21 -10 5 10 23 34 35 33 32 34 32 35 28 26 9 14 14 16 18 17 15 18 19
41 43 48 51 53 60 61 64 60 60 66 66 62 61 58 48 37 13 1 -11 -14 -13 -7 -2 7 21 26 29 35 33 30 31 28 33 18 17 20 23 19 23 26 23 28
Wind_Speed
69 72 76 77 75 77 79 78 75 72 69 63 62 61 63 65 64 56 51 47 50 55 57 64 64 64 62 62 64 68 74 76 84 83 77 76 76 75 76 79 80 80 79
73 75 76 74 73 77 77 75 74 73 67 66 64 64 64 56 55 53 54 55 56 61 65 68 71 71 69 65 65 68 71 73 78 85 78 77 76 75 76 79 79 79 79
71 71 72 73 74 76 76 74 70 69 68 65 61 57 57 59 60 56 54 55 63 69 70 68 67 66 67 66 66 69 69 70 72 77 81 75 75 75 79 79 81 81 80
69 74 78 77 75 75 71 69 70 68 66 64 63 63 63 65 64 62 63 67 68 69 66 63 63 64 67 69 70 72 73 74 74 75 79 80 75 74 78 84 86 81 85
72 78 74 71 70 71 72 72 70 69 65 65 64 63 64 65 63 66 67 65 64 66 67 66 64 66 69 72 76 78 75 75 74 74 75 77 76 75 76 78 85 84 85
74 72 69 71 72 72 70 70 70 68 66 65 66 67 69 67 64 68 71 71 72 73 74 73 73 72 70 67 65 66 68 73 77 77 76 76 76 73 70 71 73 77 84
71 65 69 69 71 70 70 69 68 67 68 69 69 69 69 69 66 73 76 75 76 76 77 77 78 75 73 71 70 65 59 61 65 68 72 67 68 66 66 68 68 69 72
69 65 65 67 66 67 67 66 66 68 70 69 68 68 69 68 69 71 76 75 73 74 75 76 78 78 74 70 70 67 64 58 53 50 50 56 61 66 66 70 75 79 75
67 65 63 61 61 63 62 65 67 68 68 66 65 68 69 70 71 74 76 74 72 74 74 74 75 76 74 71 70 70 63 60 56 39 34 46 56 61 62 67 67 67 73
64 60 55 54 56 57 61 65 66 66 64 64 66 67 69 68 68 70 68 67 72 72 71 72 70 72 73 69 67 66 70 77 77 65 32 29 25 32 43 51 59 65 65
58 54 52 50 50 54 59 63 66 65 64 62 62 63 61 62 63 62 65 65 68 73 73 72 68 61 55 61 67 71 68 67 62 48 36 32 32 15 18 22 30 44 57
58 56 49 47 49 53 59 62 63 63 62 63 63 62 61 59 57 56 61 69 70 73 68 62 54 55 60 61 59 58 58 55 35 27 23 23 18 13 10 26 30 38 38
59 54 48 46 49 53 59 62 61 59 61 61 61 61 57 60 56 55 50 71 59 50 46 47 48 48 48 47 47 47 44 35 33 30 27 25 23 22 12 51 49 39 35
55 50 46 46 50 53 56 56 56 58 58 58 58 58 58 57 54 52 35 42 36 32 36 34 37 36 36 36 37 36 36 33 30 26 24 22 19 17 16 14 6 35 34
50 45 45 45 48 51 53 53 52 54 54 55 55 55 55 53 48 33 37 33 31 30 28 29 29 27 26 26 28 28 30 30 30 25 22 19 16 15 13 15 14 8 2
44 43 45 45 45 47 50 51 44 49 52 51 52 51 44 38 34 37 35 30 32 25 22 23 22 22 22 23 23 23 25 27 29 26 24 19 17 18 17 20 20 17 16
41 43 43 40 42 45 48 51 51 50 47 45 49 50 48 36 40 36 34 28 28 22 19 19 20 22 24 25 24 24 28 28 28 33 34 15 22 22 24 27 26 25 25
39 38 39 39 40 44 48 48 47 52 54 52 49 48 50 46 40 36 32 23 24 24 22 22 24 26 29 30 30 30 29 34 38 39 41 42 41 35 35 32 30 28 27
41 38 38 37 40 44 44 45 46 49 51 51 49 49 59 51 42 37 32 28 27 27 27 28 30 31 32 34 35 34 35 37 40 41 42 42 43 42 42 40 34 31 26
40 37 36 38 42 44 44 44 47 48 49 50 52 53 63 51 45 41 38 34 31 30 31 31 32 31 30 31 32 35 37 39 40 41 44 44 43 43 42 42 42 37 33
35 34 35 39 44 45 43 43 46 46 46 48 53 54 61 53 48 44 42 40 39 37 36 35 34 35 35 36 37 38 40 41 42 42 42 44 45 44 44 42 40 37 37
33 31 34 39 41 43 42 41 43 43 43 46 49 51 55 56 50 46 44 43 43 42 42 41 40 41 42 42 42 42 43 43 44 44 44 44 44 44 45 46 44 43 42
34 32 33 36 39 40 39 39 40 41 41 42 46 48 53 56 52 48 45 44 44 43 43 42 42 43 44 44 44 44 44 44 43 44 43 43 44 45 46 46 45 45 45
34 31 31 33 36 39 39 39 39 39 39 39 41 44 47 51 52 50 48 45 44 43 43 42 42 44 45 45 45 45 45 46 46 45 46 46 46 46 46 45 45 45 45
35 31 30 32 35 39 40 38 39 39 39 38 36 39 41 44 48 49 48 47 45 44 44 43 43 44 44 45 47 48 48 49 49 49 47 47 47 47 46 46 46 45 45
34 31 31 32 33 36 40 40 40 41 39 38 37 35 38 39 43 46 47 47 46 45 44 43 43 44 45 45 47 49 50 50 50 50 48 47 47 47 47 46 47 45 46
Wind_Direction
337 336 335 335 336 336 335 334 334 333 333 332 332 331 331 331 329 327 327 325 323 320 319 311 310 308 307 304 299 292 286 286 285 285 286 285 285 284 285 283 280 278 279
336 336 337 338 337 337 336 336 334 333 334 334 334 332 330 331 331 329 325 321 319 317 314 312 309 306 304 304 300 296 293 291 289 286 288 288 287 287 286 284 283 281 280
339 340 339 338 336 337 337 337 337 337 336 335 334 334 334 332 328 326 324 321 317 314 313 313 312 309 305 303 300 298 296 294 292 290 288 289 289 288 286 284 282 282 281
338 340 338 337 337 339 340 340 339 338 337 336 334 331 330 328 326 323 321 318 316 314 314 314 312 309 305 301 299 297 296 294 292 291 289 288 288 288 285 282 281 281 278
337 338 340 342 342 340 339 340 340 339 339 338 337 335 333 330 329 326 324 322 319 316 313 312 311 308 305 302 298 296 296 295 293 291 290 289 288 288 286 285 282 282 280
337 339 341 342 342 342 342 341 341 341 341 340 339 336 333 331 331 328 324 319 316 313 310 308 307 306 305 304 303 300 298 295 292 291 291 290 289 290 290 288 286 283 280
338 340 342 343 343 344 343 343 343 343 342 340 338 337 335 332 332 327 324 319 315 311 309 307 304 303 304 302 302 302 301 298 294 294 292 292 292 292 291 289 288 286 284
338 339 341 343 343 344 345 345 345 343 342 342 341 339 337 335 333 330 326 322 318 313 309 306 303 300 301 302 301 301 301 302 302 299 296 295 292 290 288 286 282 279 280
337 338 340 342 344 346 347 346 346 345 345 345 344 342 339 336 335 332 328 324 319 314 310 306 302 298 297 298 297 298 303 304 305 300 290 296 293 291 288 287 286 285 281
337 338 341 344 345 347 347 347 348 348 348 347 345 344 341 339 339 337 336 332 322 316 312 306 302 296 291 293 295 298 299 282 284 299 305 307 260 287 288 285 286 284 283
341 341 341 344 347 348 348 349 349 350 350 350 348 348 347 346 345 344 340 335 327 315 307 300 296 301 302 294 288 276 261 268 257 242 230 224 220 237 291 287 286 287 284
341 340 342 345 348 349 349 350 351 351 352 352 352 352 352 353 353 353 347 332 323 300 289 280 291 288 281 277 267 269 266 261 227 216 206 203 199 203 267 306 299 296 290
339 340 342 346 348 350 350 352 353 356 356 356 356 356 357 356 358 358 358 315 291 275 267 274 275 274 269 263 266 262 252 231 227 215 206 199 195 199 259 302 297 300 301
338 341 345 348 349 352 354 356 359 360 0 360 -0 0 360 1 3 6 289 286 275 264 266 259 268 264 258 253 259 256 252 249 235 210 197 196 188 177 183 171 13 309 304
343 347 349 352 354 356 359 2 4 7 7 5 6 5 5 6 10 287 290 284 279 270 254 259 265 267 270 278 280 258 262 265 263 227 196 183 157 147 142 123 134 84 71
351 354 355 356 1 2 4 6 14 13 12 13 13 13 17 21 287 291 293 286 291 276 251 261 265 272 282 291 293 285 274 272 271 252 237 183 139 112 108 105 108 116 128
358 358 1 7 8 8 8 9 10 13 17 20 19 20 23 293 296 295 297 287 295 278 264 265 271 284 293 294 288 288 300 292 272 284 289 151 99 99 89 88 95 99 102
4 7 10 14 16 13 11 13 15 14 15 17 23 25 24 307 299 298 297 277 284 291 281 281 285 292 299 300 301 297 293 311 322 321 335 349 18 49 55 71 82 88 93
5 10 14 19 17 15 15 17 18 17 18 20 23 26 11 318 305 300 295 291 289 290 287 288 295 299 302 306 308 309 311 318 326 329 336 341 351 12 25 40 64 78 94
7 14 19 19 16 15 17 19 18 20 21 23 23 23 349 320 314 307 304 298 292 291 295 297 298 296 297 302 306 312 318 325 327 330 338 341 344 357 13 17 30 50 64
10 15 17 17 15 16 19 20 20 22 24 24 22 18 4 325 322 315 311 308 303 300 300 301 303 308 310 311 315 319 324 327 333 333 334 339 344 353 1 18 27 41 43
11 15 15 14 15 17 19 20 21 24 25 24 24 22 10 346 333 327 318 317 316 314 314 314 316 320 323 322 322 324 327 330 333 333 330 331 339 345 353 11 17 13 17
10 12 12 14 14 17 19 20 20 23 26 25 23 21 13 348 344 334 328 323 322 323 324 324 325 325 327 327 328 328 326 325 321 322 323 325 332 339 352 6 9 9 7
7 10 12 14 15 15 17 17 16 20 23 25 23 21 16 5 344 342 340 330 324 323 324 326 327 327 326 328 330 329 330 324 321 322 325 331 337 340 349 355 1 359 358
8 13 16 15 16 15 15 16 14 15 19 21 24 19 18 10 358 343 343 339 332 326 324 324 325 324 326 328 330 330 330 330 332 329 333 339 342 345 349 353 352 357 355
9 14 16 17 17 17 16 16 13 11 16 18 20 20 14 13 3 351 345 341 336 332 329 326 324 324 325 328 329 329 330 330 332 333 336 339 342 345 348 351 350 350 349